"SCET";"TARGET";"ELECTRON_DENSITY";"ERROR_FLAG";"ELECTRON_DENSITY_ERROR";"FREQ_FCE";"MEASURED_VALUE";"MEASURED_ITEM";"FREQ_PLASMA";"FREQ_UPPER_HYBRID";"FREQ_R_EQUALS_ZERO";"FREQ_L_EQUALS_ZERO";"ORBIT_NUMBER";"SATURN_RADIUS";"SATURN_IAU_LONGITUDE";"SATURN_SLS4_S_LONGITUDE";"SATURN_SLS4_N_LONGITUDE";"SATURN_SLS5_S_LONGITUDE";"SATURN_SLS5_N_LONGITUDE";"SATURN_LOCAL_TIME";"SATURN_KRONOGRAPHIC_LATITUDE";"SATURN_MAGNETIC_LATITUDE";"SATURN_L";"SATURN_L_OFFSET";"SATURN_SOLAR_EQUATORIAL_X";"SATURN_SOLAR_EQUATORIAL_Y";"SATURN_SOLAR_EQUATORIAL_Z";"SATURN_ALTITUDE";"ENCELADUS_ENCOUNTER_NUMBER";"ENCELADUS_RADIUS";"ENCELADUS_COROTATIONAL_X";"ENCELADUS_COROTATIONAL_Y";"ENCELADUS_COROTATIONAL_Z";"ENCELADUS_TRUE_ANOMALY";"ENCELADUS_PERIAPSIS_TIME";"JUPITER_RADIUS";"JUPITER_SYSTEMIII_LONGITUDE";"JUPITER_MAGNETIC_LATITUDE";"JUPITER_MAGNETIC_LOCAL_TIME";"JUPITER_L";"IO_PHASE";"EARTH_RADIUS";"EARTH_MAGNETIC_LATITUDE";"EARTH_LOCAL_TIME";"EARTH_L"
"[UTC]";"[0=Saturn, 1=Enceladus, 2=Jupiter, 3=Earth]";"[cm-3]";"[0=automated, 1=manual]";"[normalized density error]";"[Hz]";"[Hz]";"[0=upper hybrid frequency, 1=plasma frequency cutoff]";"[Hz]";"[Hz]";"[Hz]";"[Hz}";"[0, A, B, C, 3, 4, ... , 292, 293]";"[Rs where 1Rs=60268km]";"[degrees]";"[degrees]";"[degrees]";"[degrees]";"[degrees]";"[hours]";"[degrees]";"[degrees where offset=2293km north]";"[Rs where 1Rs=60268km]";"[Rs where 1Rs=60268km and offset=2293km north]";"[Rs where 1Rs=60268km]";"[Rs where 1Rs=60268km]";"[Rs where 1Rs=60268km]";"[km where ellipsoid a,b=60268km and c=54364km]";"[E0, E1, E2, ... , E21, E22]";"[Renc where 1Renc=252.1km]";"[Renc where 1Renc=252.1km]";"[Renc where 1Renc=252.1km]";"[Renc where 1Renc=252.1km]";"[degrees]";"[UTC]";"[Rj where 1Rj=71492km]";"[degrees]";"[degrees using JRM09 model]";"[hours using JRM09 model]";"[Rj where 1Rj=71492km]";"[degrees]";"[Re where 1Re=6378.1366km]";"[degrees]";"[hours]";"[Re where 1Re=6378.1366km]"
2005-08-01T20:16:51.932Z;0;1.5590e+00;0;     0.200;  1794.156;  11354.983; 0;  11212.344;  11354.983;  12145.251;  10351.095; 12;   7.169; 214.654; 197.055;; 204.678; 218.547;  13.202; -18.619; -18.907;   7.983;   7.174;   6.460;   2.104;  -2.289;;;;;;;;;;;;;;;;;;
2005-08-01T20:17:39.931Z;0;1.5750e+00;0;     0.191;  1794.156;  11412.093; 0;  11270.176;  11412.093;  12202.900;  10408.744; 12;   7.162; 215.045; 197.440;; 205.057; 218.934;  13.206; -18.608; -18.896;   7.974;   7.167;   6.452;   2.109;  -2.285;;;;;;;;;;;;;;;;;;
2005-08-01T20:17:55.931Z;0;1.6010e+00;0;     0.176;  1794.156;  11503.194; 0;  11362.415;  11503.194;  12294.852;  10500.695; 12;   7.160; 215.176; 197.569;; 205.183; 219.062;  13.208; -18.604; -18.892;   7.972;   7.165;   6.450;   2.110;  -2.284;;;;;;;;;;;;;;;;;;
2005-08-01T20:18:11.931Z;0;1.5980e+00;0;     0.193;  1798.328;  11494.172; 0;  11352.621;  11494.172;  12287.338;  10489.010; 12;   7.158; 215.306; 197.697;; 205.309; 219.191;  13.209; -18.600; -18.888;   7.969;   7.163;   6.447;   2.112;  -2.283;;;;;;;;;;;;;;;;;;
2005-08-01T20:18:43.931Z;0;1.6830e+00;0;     0.212;  1798.328;  11787.746; 0;  11649.763;  11787.746;  12583.575;  10785.247; 12;   7.154; 215.567; 197.954;; 205.561; 219.448;  13.212; -18.592; -18.881;   7.963;   7.159;   6.442;   2.115;  -2.281;;;;;;;;;;;;;;;;;;
2005-08-01T20:18:59.931Z;0;1.6740e+00;0;     0.198;  1798.328;  11758.068; 0;  11619.732;  11758.068;  12553.635;  10755.307; 12;   7.152; 215.697; 198.082;; 205.687; 219.577;  13.213; -18.589; -18.877;   7.960;   7.157;   6.440;   2.117;  -2.280;;;;;;;;;;;;;;;;;;
2005-08-01T20:19:15.931Z;0;1.6670e+00;0;     0.173;  1803.620;  11733.235; 0;  11593.781;  11733.235;  12530.611;  10726.991; 12;   7.149; 215.827; 198.211;; 205.812; 219.705;  13.214; -18.585; -18.873;   7.958;   7.155;   6.437;   2.118;  -2.279;;;;;;;;;;;;;;;;;;
2005-08-01T20:19:31.931Z;0;1.6380e+00;0;     0.087;  1803.620;  11633.806; 0;  11493.146;  11633.806;  12430.281;  10626.661; 12;   7.147; 215.957; 198.339;; 205.938; 219.833;  13.216; -18.581; -18.869;   7.955;   7.152;   6.435;   2.120;  -2.277;;;;;;;;;;;;;;;;;;
2005-08-01T20:19:47.931Z;0;1.5820e+00;0;     0.148;  1803.620;  11438.560; 0;  11295.468;  11438.560;  12233.221;  10429.601; 12;   7.145; 216.088; 198.467;; 206.064; 219.962;  13.217; -18.577; -18.866;   7.952;   7.150;   6.432;   2.122;  -2.276;;;;;;;;;;;;;;;;;;
2005-08-01T20:20:03.930Z;0;1.5760e+00;0;     0.108;  1808.716;  11416.944; 0;  11272.762;  11416.944;  12213.338;  10404.622; 12;   7.143; 216.218; 198.596;; 206.190; 220.090;  13.218; -18.573; -18.862;   7.949;   7.148;   6.429;   2.123;  -2.275;;;;;;;;;;;;;;;;;;
2005-08-01T20:20:19.930Z;0;1.5670e+00;0;     0.083;  1808.716;  11385.660; 0;  11241.076;  11385.660;  12181.754;  10373.038; 12;   7.141; 216.348; 198.724;; 206.318; 220.221;  13.220; -18.569; -18.858;   7.947;   7.146;   6.427;   2.125;  -2.274;;;;;;;;;;;;;;;;;;
2005-08-01T20:20:35.930Z;0;1.5580e+00;0;     0.081;  1808.716;  11352.192; 0;  11207.177;  11352.192;  12147.964;  10339.248; 12;   7.139; 216.478; 198.852;; 206.446; 220.352;  13.221; -18.565; -18.854;   7.944;   7.144;   6.424;   2.127;  -2.273;;;;;;;;;;;;;;;;;;
2005-08-01T20:20:51.930Z;0;1.5620e+00;0;     0.077;  1808.716;  11367.540; 0;  11222.723;  11367.540;  12163.460;  10354.744; 12;   7.136; 216.609; 198.981;; 206.575; 220.483;  13.222; -18.561; -18.850;   7.941;   7.142;   6.422;   2.128;  -2.272;;;;;;;;;;;;;;;;;;
2005-08-01T20:21:07.930Z;0;1.5590e+00;0;     0.065;  1814.540;  11358.785; 0;  11212.914;  11358.785;  12156.829;  10342.289; 12;   7.134; 216.739; 199.109;; 206.703; 220.614;  13.224; -18.557; -18.847;   7.938;   7.139;   6.419;   2.130;  -2.271;;;;;;;;;;;;;;;;;;
2005-08-01T20:21:23.930Z;0;1.5560e+00;0;     0.063;  1814.540;  11346.133; 0;  11200.097;  11346.133;  12144.054;  10329.514; 12;   7.132; 216.869; 199.237;; 206.831; 220.745;  13.225; -18.553; -18.843;   7.936;   7.137;   6.417;   2.132;  -2.269;;;;;;;;;;;;;;;;;;
2005-08-01T20:21:39.930Z;0;1.5520e+00;0;     0.063;  1814.540;  11333.980; 0;  11187.786;  11333.980;  12131.783;  10317.243; 12;   7.130; 216.999; 199.366;; 206.960; 220.876;  13.226; -18.550; -18.839;   7.933;   7.135;   6.414;   2.133;  -2.268;;;;;;;;;;;;;;;;;;
2005-08-01T20:21:55.930Z;0;1.5420e+00;0;     0.057;  1814.540;  11296.876; 0;  11150.195;  11296.876;  12094.315;  10279.775; 12;   7.128; 217.129; 199.494;; 207.088; 221.008;  13.228; -18.546; -18.835;   7.930;   7.133;   6.412;   2.135;  -2.267;;;;;;;;;;;;;;;;;;
2005-08-01T20:22:11.930Z;0;1.5450e+00;0;     0.067;  1819.356;  11309.744; 0;  11162.448;  11309.744;  12109.132;  10289.776; 12;   7.126; 217.260; 199.622;; 207.217; 221.139;  13.229; -18.542; -18.831;   7.927;   7.131;   6.409;   2.136;  -2.266;;;;;;;;;;;;;;;;;;
2005-08-01T20:22:27.930Z;0;1.5560e+00;0;     0.095;  1819.356;  11348.588; 0;  11201.803;  11348.588;  12148.357;  10329.001; 12;   7.124; 217.390; 199.750;; 207.346; 221.270;  13.230; -18.538; -18.827;   7.925;   7.129;   6.407;   2.138;  -2.265;;;;;;;;;;;;;;;;;;
2005-08-01T20:22:43.929Z;0;1.6390e+00;0;     0.123;  1819.356;  11640.280; 0;  11497.220;  11640.280;  12442.829;  10623.474; 12;   7.121; 217.520; 199.879;; 207.474; 221.402;  13.232; -18.534; -18.824;   7.922;   7.126;   6.404;   2.140;  -2.264;;;;;;;;;;;;;;;;;;
2005-08-01T20:22:59.929Z;0;1.5700e+00;0;     0.136;  1819.356;  11399.526; 0;  11253.406;  11399.526;  12199.791;  10380.436; 12;   7.119; 217.650; 200.007;; 207.603; 221.533;  13.233; -18.530; -18.820;   7.919;   7.124;   6.402;   2.141;  -2.262;;;;;;;;;;;;;;;;;;
2005-08-01T20:23:15.929Z;0;1.4920e+00;0;     0.105;  1824.396;  11118.924; 0;  10968.229;  11118.924;  11918.294;  10093.898; 12;   7.117; 217.780; 200.135;; 207.732; 221.664;  13.234; -18.526; -18.816;   7.916;   7.122;   6.399;   2.143;  -2.261;;;;;;;;;;;;;;;;;;
2005-08-01T20:23:31.929Z;0;1.4670e+00;0;     0.097;  1824.396;  11029.985; 0;  10878.059;  11029.985;  11828.437;  10004.040; 12;   7.115; 217.910; 200.263;; 207.861; 221.796;  13.236; -18.522; -18.812;   7.913;   7.120;   6.396;   2.145;  -2.260;;;;;;;;;;;;;;;;;;
2005-08-01T20:23:47.929Z;0;1.4560e+00;0;     0.080;  1824.396;  10987.947; 0;  10835.431;  10987.947;  11785.959;   9961.562; 12;   7.113; 218.040; 200.391;; 207.990; 221.928;  13.237; -18.518; -18.808;   7.911;   7.118;   6.394;   2.146;  -2.259;;;;;;;;;;;;;;;;;;
2005-08-01T20:24:03.929Z;0;1.4560e+00;0;     0.074;  1830.444;  10989.816; 0;  10836.307;  10989.816;  11790.109;   9959.665; 12;   7.111; 218.171; 200.520;; 208.119; 222.059;  13.238; -18.514; -18.804;   7.908;   7.116;   6.391;   2.148;  -2.258;;;;;;;;;;;;;;;;;;
2005-08-01T20:24:19.929Z;0;1.4560e+00;0;     0.085;  1830.444;  10989.262; 0;  10835.744;  10989.262;  11789.549;   9959.104; 12;   7.108; 218.301; 200.648;; 208.248; 222.191;  13.240; -18.510; -18.800;   7.905;   7.114;   6.389;   2.150;  -2.257;;;;;;;;;;;;;;;;;;
2005-08-01T20:24:35.929Z;0;1.4540e+00;0;     0.073;  1830.444;  10980.366; 0;  10826.723;  10980.366;  11780.559;   9950.115; 12;   7.106; 218.431; 200.776;; 208.377; 222.323;  13.241; -18.506; -18.796;   7.902;   7.111;   6.386;   2.151;  -2.256;;;;;;;;;;;;;;;;;;
2005-08-01T20:24:51.929Z;0;1.4770e+00;0;     0.081;  1830.444;  11066.137; 0;  10913.700;  11066.137;  11867.230;  10036.786; 12;   7.104; 218.561; 200.904;; 208.506; 222.455;  13.242; -18.502; -18.793;   7.900;   7.109;   6.384;   2.153;  -2.254;;;;;;;;;;;;;;;;;;
2005-08-01T20:25:07.928Z;0;1.4510e+00;0;     0.058;  1835.988;  10973.302; 0;  10818.618;  10973.302;  11775.489;   9939.502; 12;   7.102; 218.691; 201.032;; 208.635; 222.587;  13.244; -18.498; -18.789;   7.897;   7.107;   6.381;   2.154;  -2.253;;;;;;;;;;;;;;;;;;
2005-08-01T20:25:23.928Z;0;1.4480e+00;0;     0.056;  1835.988;  10958.982; 0;  10804.094;  10958.982;  11761.018;   9925.029; 12;   7.100; 218.821; 201.160;; 208.765; 222.719;  13.245; -18.494; -18.785;   7.894;   7.105;   6.379;   2.156;  -2.252;;;;;;;;;;;;;;;;;;
2005-08-01T20:25:39.928Z;0;1.4820e+00;0;     0.074;  1835.988;  11083.999; 0;  10930.882;  11083.999;  11887.355;  10051.368; 12;   7.098; 218.951; 201.288;; 208.894; 222.851;  13.246; -18.490; -18.781;   7.891;   7.103;   6.376;   2.158;  -2.251;;;;;;;;;;;;;;;;;;
2005-08-01T20:25:55.928Z;0;1.4700e+00;0;     0.070;  1835.988;  11041.219; 0;  10887.500;  11041.219;  11844.127;  10008.139; 12;   7.095; 219.081; 201.416;; 209.023; 222.983;  13.248; -18.486; -18.777;   7.889;   7.101;   6.374;   2.159;  -2.250;;;;;;;;;;;;;;;;;;
2005-08-01T20:26:11.928Z;0;1.4720e+00;0;     0.072;  1837.080;  11047.468; 0;  10893.653;  11047.468;  11850.850;  10013.770; 12;   7.093; 219.211; 201.545;; 209.153; 223.115;  13.249; -18.482; -18.773;   7.886;   7.098;   6.371;   2.161;  -2.249;;;;;;;;;;;;;;;;;;
2005-08-01T20:26:27.928Z;0;1.5610e+00;0;     0.105;  1837.080;  11370.767; 0;  11221.385;  11370.767;  12177.456;  10340.376; 12;   7.091; 219.341; 201.673;; 209.282; 223.247;  13.250; -18.478; -18.769;   7.883;   7.096;   6.368;   2.163;  -2.247;;;;;;;;;;;;;;;;;;
2005-08-01T20:26:59.928Z;0;1.4340e+00;0;     0.065;  1837.080;  10909.801; 0;  10754.018;  10909.801;  11711.714;   9874.634; 12;   7.087; 219.601; 201.929;; 209.542; 223.512;  13.253; -18.470; -18.761;   7.877;   7.092;   6.363;   2.166;  -2.245;;;;;;;;;;;;;;;;;;
2005-08-01T20:27:15.928Z;0;1.4510e+00;0;     0.064;  1838.088;  10970.984; 0;  10815.911;  10970.984;  11773.931;   9935.843; 12;   7.085; 219.731; 202.057;; 209.671; 223.644;  13.254; -18.466; -18.757;   7.875;   7.090;   6.361;   2.168;  -2.244;;;;;;;;;;;;;;;;;;
2005-08-01T20:27:31.928Z;0;1.4500e+00;0;     0.054;  1838.088;  10968.759; 0;  10813.653;  10968.759;  11771.682;   9933.594; 12;   7.082; 219.861; 202.185;; 209.801; 223.777;  13.256; -18.462; -18.754;   7.872;   7.088;   6.358;   2.169;  -2.243;;;;;;;;;;;;;;;;;;
2005-08-01T20:27:47.927Z;0;1.4570e+00;0;     0.055;  1838.088;  10995.132; 0;  10840.404;  10995.132;  11798.336;   9960.248; 12;   7.080; 219.991; 202.313;; 209.931; 223.909;  13.257; -18.458; -18.750;   7.869;   7.085;   6.356;   2.171;  -2.242;;;;;;;;;;;;;;;;;;
2005-08-01T20:28:03.927Z;0;1.4600e+00;0;     0.057;  1843.380;  11004.235; 0;  10848.739;  11004.235;  11809.512;   9966.132; 12;   7.078; 220.120; 202.441;; 210.061; 224.042;  13.258; -18.454; -18.746;   7.866;   7.083;   6.353;   2.172;  -2.241;;;;;;;;;;;;;;;;;;
2005-08-01T20:28:19.927Z;0;1.4540e+00;0;     0.057;  1843.380;  10984.394; 0;  10828.612;  10984.394;  11789.457;   9946.077; 12;   7.076; 220.250; 202.569;; 210.191; 224.174;  13.260; -18.450; -18.742;   7.864;   7.081;   6.351;   2.174;  -2.239;;;;;;;;;;;;;;;;;;
2005-08-01T20:28:35.927Z;0;1.4440e+00;0;     0.055;  1843.380;  10946.038; 0;  10789.703;  10946.038;  11750.688;   9907.309; 12;   7.074; 220.380; 202.697;; 210.321; 224.307;  13.261; -18.446; -18.738;   7.861;   7.079;   6.348;   2.176;  -2.238;;;;;;;;;;;;;;;;;;
2005-08-01T20:28:51.927Z;0;1.4460e+00;0;     0.056;  1843.380;  10953.048; 0;  10796.814;  10953.048;  11757.774;   9914.395; 12;   7.072; 220.510; 202.825;; 210.451; 224.440;  13.262; -18.442; -18.734;   7.858;   7.077;   6.345;   2.177;  -2.237;;;;;;;;;;;;;;;;;;
2005-08-01T20:29:07.927Z;0;1.4390e+00;0;     0.057;  1842.876;  10927.122; 0;  10770.599;  10927.122;  11731.380;   9888.504; 12;   7.070; 220.640; 202.953;; 210.581; 224.573;  13.264; -18.438; -18.730;   7.855;   7.075;   6.343;   2.179;  -2.236;;;;;;;;;;;;;;;;;;
2005-08-01T20:29:23.927Z;0;1.4340e+00;0;     0.056;  1842.876;  10912.041; 0;  10755.299;  10912.041;  11716.136;   9873.260; 12;   7.067; 220.770; 203.081;; 210.711; 224.705;  13.265; -18.434; -18.726;   7.853;   7.072;   6.340;   2.181;  -2.235;;;;;;;;;;;;;;;;;;
2005-08-01T20:29:39.927Z;0;1.4370e+00;0;     0.058;  1842.876;  10919.638; 0;  10763.006;  10919.638;  11723.814;   9880.938; 12;   7.065; 220.900; 203.209;; 210.842; 224.838;  13.267; -18.430; -18.722;   7.850;   7.070;   6.338;   2.182;  -2.234;;;;;;;;;;;;;;;;;;
2005-08-01T20:29:55.927Z;0;1.4300e+00;0;     0.061;  1842.876;  10895.942; 0;  10738.965;  10895.942;  11699.861;   9856.985; 12;   7.063; 221.030; 203.337;; 210.972; 224.971;  13.268; -18.426; -18.718;   7.847;   7.068;   6.335;   2.184;  -2.232;;;;;;;;;;;;;;;;;;
2005-08-01T20:30:11.927Z;0;1.4410e+00;0;     0.060;  1844.808;  10936.825; 0;  10780.112;  10936.825;  11741.907;   9897.100; 12;   7.061; 221.159; 203.464;; 211.101; 225.102;  13.269; -18.422; -18.714;   7.844;   7.066;   6.333;   2.185;  -2.231;;;;;;;;;;;;;;;;;;
2005-08-01T20:30:27.926Z;0;1.4380e+00;0;     0.058;  1844.808;  10926.720; 0;  10769.860;  10926.720;  11731.692;   9886.885; 12;   7.059; 221.289; 203.592;; 211.230; 225.233;  13.271; -18.418; -18.710;   7.841;   7.064;   6.330;   2.187;  -2.230;;;;;;;;;;;;;;;;;;
2005-08-01T20:30:43.926Z;0;1.4460e+00;0;     0.058;  1844.808;  10955.124; 0;  10798.677;  10955.124;  11760.404;   9915.597; 12;   7.057; 221.419; 203.720;; 211.359; 225.363;  13.272; -18.414; -18.706;   7.839;   7.062;   6.328;   2.189;  -2.229;;;;;;;;;;;;;;;;;;
2005-08-01T20:30:59.926Z;0;1.4580e+00;0;     0.058;  1844.808;  10997.194; 0;  10841.354;  10997.194;  11802.928;   9958.120; 12;   7.054; 221.549; 203.848;; 211.488; 225.493;  13.273; -18.409; -18.702;   7.836;   7.059;   6.325;   2.190;  -2.228;;;;;;;;;;;;;;;;;;
2005-08-01T20:31:15.926Z;0;1.4600e+00;0;     0.057;  1847.860;  11008.033; 0;  10851.830;  11008.033;  11815.021;   9967.160; 12;   7.052; 221.679; 203.976;; 211.617; 225.623;  13.275; -18.405; -18.698;   7.833;   7.057;   6.322;   2.192;  -2.227;;;;;;;;;;;;;;;;;;
2005-08-01T20:31:31.926Z;0;1.4580e+00;0;     0.056;  1847.860;  11000.075; 0;  10843.757;  11000.075;  11806.978;   9959.117; 12;   7.050; 221.808; 204.104;; 211.746; 225.753;  13.276; -18.401; -18.694;   7.830;   7.055;   6.320;   2.194;  -2.225;;;;;;;;;;;;;;;;;;
2005-08-01T20:31:47.926Z;0;1.4580e+00;0;     0.056;  1847.860;  10998.472; 0;  10842.131;  10998.472;  11805.356;   9957.496; 12;   7.048; 221.938; 204.232;; 211.875; 225.883;  13.277; -18.397; -18.690;   7.828;   7.053;   6.317;   2.195;  -2.224;;;;;;;;;;;;;;;;;;
2005-08-01T20:32:03.926Z;0;1.4520e+00;0;     0.056;  1853.376;  10977.329; 0;  10819.739;  10977.329;  11786.039;   9932.663; 12;   7.046; 222.068; 204.360;; 212.004; 226.012;  13.279; -18.393; -18.686;   7.825;   7.051;   6.315;   2.197;  -2.223;;;;;;;;;;;;;;;;;;
2005-08-01T20:32:19.926Z;0;1.4540e+00;0;     0.060;  1853.376;  10985.948; 0;  10828.483;  10985.948;  11794.752;   9941.376; 12;   7.044; 222.198; 204.487;; 212.133; 226.142;  13.280; -18.389; -18.682;   7.822;   7.049;   6.312;   2.199;  -2.222;;;;;;;;;;;;;;;;;;
2005-08-01T20:32:35.926Z;0;1.5080e+00;0;     0.105;  1853.376;  11183.372; 0;  11028.727;  11183.372;  11994.278;  10140.902; 12;   7.041; 222.327; 204.615;; 212.262; 226.272;  13.281; -18.385; -18.678;   7.819;   7.047;   6.310;   2.200;  -2.221;;;;;;;;;;;;;;;;;;
2005-08-01T20:32:51.926Z;0;1.6010e+00;0;     0.129;  1853.376;  11513.631; 0;  11363.480;  11513.631;  12327.892;  10474.516; 12;   7.039; 222.457; 204.743;; 212.391; 226.401;  13.283; -18.381; -18.674;   7.817;   7.044;   6.307;   2.202;  -2.220;;;;;;;;;;;;;;;;;;
2005-08-01T20:33:07.925Z;0;1.6590e+00;0;     0.062;  1860.628;  11713.543; 0;  11564.824;  11713.543;  12532.496;  10671.868; 12;   7.037; 222.587; 204.871;; 212.520; 226.531;  13.284; -18.377; -18.670;   7.814;   7.042;   6.304;   2.203;  -2.219;;;;;;;;;;;;;;;;;;
2005-08-01T20:33:23.925Z;0;1.6540e+00;0;     0.053;  1860.628;  11697.771; 0;  11548.850;  11697.771;  12516.573;  10655.945; 12;   7.035; 222.716; 204.999;; 212.649; 226.660;  13.286; -18.373; -18.666;   7.811;   7.040;   6.302;   2.205;  -2.217;;;;;;;;;;;;;;;;;;
2005-08-01T20:33:39.925Z;0;1.6560e+00;0;     0.052;  1860.628;  11706.096; 0;  11557.281;  11706.096;  12524.978;  10664.350; 12;   7.033; 222.846; 205.126;; 212.778; 226.789;  13.287; -18.368; -18.662;   7.808;   7.038;   6.299;   2.207;  -2.216;;;;;;;;;;;;;;;;;;
2005-08-01T20:33:55.925Z;0;1.6570e+00;0;     0.053;  1860.628;  11707.974; 0;  11559.183;  11707.974;  12526.874;  10666.246; 12;   7.031; 222.976; 205.254;; 212.907; 226.919;  13.288; -18.364; -18.658;   7.805;   7.036;   6.297;   2.208;  -2.215;;;;;;;;;;;;;;;;;;
2005-08-01T20:34:11.925Z;0;1.6560e+00;0;     0.052;  1863.260;  11706.858; 0;  11557.629;  11706.858;  12526.747;  10663.486; 12;   7.028; 223.105; 205.382;; 213.035; 227.048;  13.290; -18.360; -18.654;   7.803;   7.034;   6.294;   2.210;  -2.214;;;;;;;;;;;;;;;;;;
2005-08-01T20:34:27.925Z;0;1.6560e+00;0;     0.052;  1863.260;  11706.833; 0;  11557.604;  11706.833;  12526.721;  10663.461; 12;   7.026; 223.235; 205.510;; 213.164; 227.177;  13.291; -18.356; -18.650;   7.800;   7.031;   6.292;   2.212;  -2.213;;;;;;;;;;;;;;;;;;
2005-08-01T20:34:43.925Z;0;1.6560e+00;0;     0.053;  1863.260;  11706.877; 0;  11557.648;  11706.877;  12526.766;  10663.506; 12;   7.024; 223.365; 205.637;; 213.293; 227.306;  13.292; -18.352; -18.646;   7.797;   7.029;   6.289;   2.213;  -2.212;;;;;;;;;;;;;;;;;;
2005-08-01T20:34:59.925Z;0;1.6570e+00;0;     0.053;  1863.260;  11707.214; 0;  11557.989;  11707.214;  12527.105;  10663.846; 12;   7.022; 223.494; 205.765;; 213.422; 227.434;  13.294; -18.348; -18.642;   7.794;   7.027;   6.286;   2.215;  -2.210;;;;;;;;;;;;;;;;;;
2005-08-01T20:35:15.925Z;0;1.6560e+00;0;     0.053;  1870.932;  11707.835; 0;  11557.379;  11707.835;  12530.643;  10659.710; 12;   7.020; 223.624; 205.893;; 213.551; 227.563;  13.295; -18.344; -18.638;   7.792;   7.025;   6.284;   2.216;  -2.209;;;;;;;;;;;;;;;;;;
2005-08-01T20:35:31.924Z;0;1.6670e+00;0;     0.057;  1870.932;  11744.798; 0;  11594.821;  11744.798;  12567.963;  10697.031; 12;   7.018; 223.753; 206.020;; 213.680; 227.692;  13.296; -18.339; -18.634;   7.789;   7.023;   6.281;   2.218;  -2.208;;;;;;;;;;;;;;;;;;
2005-08-01T20:35:47.924Z;0;1.6940e+00;0;     0.057;  1870.932;  11836.562; 0;  11687.763;  11836.562;  12660.605;  10789.674; 12;   7.016; 223.883; 206.148;; 213.808; 227.821;  13.298; -18.335; -18.630;   7.786;   7.021;   6.279;   2.220;  -2.207;;;;;;;;;;;;;;;;;;
2005-08-01T20:36:03.924Z;0;1.7110e+00;0;     0.054;  1874.264;  11893.427; 0;  11744.817;  11893.427;  12719.277;  10845.014; 12;   7.013; 224.013; 206.276;; 213.937; 227.949;  13.299; -18.331; -18.626;   7.783;   7.018;   6.276;   2.221;  -2.206;;;;;;;;;;;;;;;;;;
2005-08-01T20:36:19.924Z;0;1.7110e+00;0;     0.055;  1874.264;  11895.493; 0;  11746.910;  11895.493;  12721.363;  10847.100; 12;   7.011; 224.142; 206.403;; 214.066; 228.078;  13.301; -18.327; -18.621;   7.780;   7.016;   6.273;   2.223;  -2.205;;;;;;;;;;;;;;;;;;
2005-08-01T20:36:51.924Z;0;1.6990e+00;0;     0.061;  1874.264;  11852.860; 0;  11703.735;  11852.860;  12678.326;  10804.062; 12;   7.007; 224.401; 206.659;; 214.323; 228.334;  13.303; -18.319; -18.613;   7.775;   7.012;   6.268;   2.226;  -2.202;;;;;;;;;;;;;;;;;;
2005-08-01T20:37:07.924Z;0;1.6200e+00;0;     0.062;  1881.992;  11584.410; 0;  11430.515;  11584.410;  12410.178;  10528.187; 12;   7.005; 224.531; 206.786;; 214.452; 228.462;  13.305; -18.314; -18.609;   7.772;   7.010;   6.266;   2.228;  -2.201;;;;;;;;;;;;;;;;;;
2005-08-01T20:37:23.924Z;0;1.6610e+00;0;     0.063;  1881.992;  11725.387; 0;  11573.366;  11725.387;  12552.554;  10670.562; 12;   7.003; 224.660; 206.914;; 214.581; 228.591;  13.306; -18.310; -18.605;   7.769;   7.008;   6.263;   2.229;  -2.200;;;;;;;;;;;;;;;;;;
2005-08-01T20:37:39.924Z;0;1.6340e+00;0;     0.061;  1881.992;  11632.940; 0;  11479.695;  11632.940;  12459.194;  10577.202; 12;   7.000; 224.790; 207.041;; 214.710; 228.719;  13.307; -18.306; -18.601;   7.767;   7.005;   6.261;   2.231;  -2.199;;;;;;;;;;;;;;;;;;
2005-08-01T20:37:55.924Z;0;1.6410e+00;0;     0.063;  1881.992;  11657.553; 0;  11504.636;  11657.553;  12484.051;  10602.059; 12;   6.998; 224.919; 207.169;; 214.838; 228.847;  13.309; -18.302; -18.597;   7.764;   7.003;   6.258;   2.233;  -2.198;;;;;;;;;;;;;;;;;;
2005-08-01T20:38:11.923Z;0;1.6420e+00;0;     0.060;  1889.272;  11659.956; 0;  11505.878;  11659.956;  12489.227;  10599.954; 12;   6.996; 225.049; 207.297;; 214.967; 228.974;  13.310; -18.298; -18.593;   7.761;   7.001;   6.255;   2.234;  -2.196;;;;;;;;;;;;;;;;;;
2005-08-01T20:38:27.923Z;0;1.6270e+00;0;     0.055;  1889.272;  11607.952; 0;  11453.175;  11607.952;  12436.700;  10547.429; 12;   6.994; 225.178; 207.424;; 215.096; 229.102;  13.312; -18.293; -18.589;   7.758;   6.999;   6.253;   2.236;  -2.195;;;;;;;;;;;;;;;;;;
2005-08-01T20:38:43.923Z;0;1.6300e+00;0;     0.052;  1889.272;  11620.903; 0;  11466.301;  11620.903;  12449.782;  10560.510; 12;   6.992; 225.308; 207.552;; 215.224; 229.230;  13.313; -18.289; -18.585;   7.755;   6.997;   6.250;   2.237;  -2.194;;;;;;;;;;;;;;;;;;
2005-08-01T20:38:59.923Z;0;1.6300e+00;0;     0.052;  1889.272;  11618.349; 0;  11463.711;  11618.349;  12447.201;  10557.930; 12;   6.990; 225.437; 207.679;; 215.353; 229.357;  13.314; -18.285; -18.580;   7.753;   6.995;   6.248;   2.239;  -2.193;;;;;;;;;;;;;;;;;;
2005-08-01T20:39:15.923Z;0;1.6260e+00;0;     0.052;  1897.728;  11606.083; 0;  11449.882;  11606.083;  12437.995;  10540.268; 12;   6.987; 225.567; 207.807;; 215.482; 229.485;  13.316; -18.281; -18.576;   7.750;   6.992;   6.245;   2.241;  -2.192;;;;;;;;;;;;;;;;;;
2005-08-01T20:39:31.923Z;0;1.6300e+00;0;     0.051;  1897.728;  11621.591; 0;  11465.601;  11621.591;  12453.660;  10555.933; 12;   6.985; 225.696; 207.934;; 215.610; 229.612;  13.317; -18.276; -18.572;   7.747;   6.990;   6.242;   2.242;  -2.191;;;;;;;;;;;;;;;;;;
2005-08-01T20:39:47.923Z;0;1.6290e+00;0;     0.053;  1897.728;  11615.710; 0;  11459.640;  11615.710;  12447.720;  10549.992; 12;   6.983; 225.825; 208.062;; 215.739; 229.740;  13.319; -18.272; -18.568;   7.744;   6.988;   6.240;   2.244;  -2.189;;;;;;;;;;;;;;;;;;
2005-08-01T20:40:03.923Z;0;1.6330e+00;0;     0.051;  1902.852;  11631.475; 0;  11474.771;  11631.475;  12465.572;  10562.721; 12;   6.981; 225.955; 208.189;; 215.867; 229.868;  13.320; -18.268; -18.564;   7.742;   6.986;   6.237;   2.246;  -2.188;;;;;;;;;;;;;;;;;;